When you browse on this site, cookies collect data to enhance your experience and personalize the content and advertising you see.
Visit our Privacy Policy to learn more. By continuing to use the site, you agree to this use of cookies and data.
  • In Latvia
  • List of Countries
  • For 7 days
  • Water Temperature
  • Satellite Maps
  • Weather Map
  • Weather Widgets
  • user-avatar
    Login

    Hourly Weather Innsbruck

    Today, 25 March, Monday

    Time Temperature Precipitation Wind Pressure Humidity
    00:00 0°C° 0.1 mm 1 mps 595 mmHg 96%
    01:00 0°C° 0.1 mm 1 mps 595 mmHg 96%
    02:00 0°C° 0 mm 1 mps 595 mmHg 96%
    03:00 0°C° 0 mm 1 mps 595 mmHg 96%
    04:00 -1°C° 0 mm 1 mps 594 mmHg 96%
    05:00 -1°C° 0 mm 1 mps 594 mmHg 96%
    06:00 -1°C° 0 mm 1 mps 594 mmHg 96%
    07:00 -3°C° 0 mm 2 mps 594 mmHg 96%
    08:00 -2°C° 0.1 mm 2 mps 594 mmHg 91%
    09:00 -1°C° 0.1 mm 2 mps 594 mmHg 87%
    10:00 -1°C° 0.1 mm 2 mps 594 mmHg 83%
    11:00 -1°C° 0.3 mm 3 mps 594 mmHg 82%
    12:00 -1°C° 0.3 mm 3 mps 594 mmHg 81%
    13:00 -1°C° 0.3 mm 3 mps 593 mmHg 80%
    14:00 -2°C° 0.4 mm 3 mps 593 mmHg 82%
    15:00 -4°C° 0.4 mm 4 mps 592 mmHg 85%
    16:00 -5°C° 0.4 mm 4 mps 592 mmHg 87%
    17:00 -7°C° 1 mm 4 mps 592 mmHg 90%
    18:00 -8°C° 1 mm 4 mps 592 mmHg 92%
    19:00 -9°C° 1 mm 3 mps 592 mmHg 94%
    20:00 -9°C° 0.4 mm 3 mps 592 mmHg 93%
    21:00 -11°C° 0.4 mm 4 mps 592 mmHg 93%
    22:00 -11°C° 0.4 mm 4 mps 592 mmHg 93%
    23:00 -12°C° 0.2 mm 3 mps 593 mmHg 92%

    Tomorrow, 26 March, Tuesday

    Time Temperature Precipitation Wind Pressure Humidity
    00:00 -12°C° 0.2 mm 3 mps 593 mmHg 92%
    01:00 -12°C° 0.2 mm 3 mps 593 mmHg 92%
    02:00 -12°C° 0.3 mm 3 mps 594 mmHg 92%
    03:00 -10°C° 0.3 mm 2 mps 594 mmHg 92%
    04:00 -10°C° 0.3 mm 2 mps 594 mmHg 92%
    05:00 -12°C° 0 mm 2 mps 594 mmHg 92%
    06:00 -12°C° 0 mm 2 mps 594 mmHg 92%
    07:00 -12°C° 0 mm 2 mps 594 mmHg 91%
    08:00 -10°C° 0 mm 2 mps 595 mmHg 85%
    09:00 -8°C° 0 mm 2 mps 596 mmHg 78%
    10:00 -7°C° 0 mm 2 mps 597 mmHg 72%
    11:00 -6°C° 0 mm 2 mps 597 mmHg 71%
    12:00 -6°C° 0 mm 3 mps 597 mmHg 70%
    13:00 -6°C° 0 mm 3 mps 598 mmHg 70%
    14:00 -6°C° 0 mm 3 mps 597 mmHg 70%
    15:00 -5°C° 0 mm 2 mps 597 mmHg 71%
    16:00 -5°C° 0 mm 2 mps 597 mmHg 72%
    17:00 -7°C° 0 mm 2 mps 597 mmHg 79%
    18:00 -8°C° 0 mm 2 mps 596 mmHg 86%
    19:00 -9°C° 0 mm 1 mps 596 mmHg 93%
    20:00 -9°C° 0 mm 1 mps 596 mmHg 93%
    21:00 -9°C° 0 mm 1 mps 596 mmHg 94%
    22:00 -10°C° 0 mm 1 mps 597 mmHg 94%
    23:00 -10°C° 0 mm 1 mps 596 mmHg 93%

    Day after tomorrow, 27 March, Wednesday

    Time Temperature Precipitation Wind Pressure Humidity
    00:00 -10°C° 0 mm 1 mps 596 mmHg 93%
    01:00 -11°C° 0 mm 1 mps 596 mmHg 92%
    02:00 -11°C° 0 mm 1 mps 596 mmHg 91%
    03:00 -11°C° 0 mm 1 mps 596 mmHg 91%
    04:00 -11°C° 0 mm 1 mps 596 mmHg 91%
    05:00 -10°C° 0 mm 1 mps 596 mmHg 89%
    06:00 -9°C° 0 mm 1 mps 597 mmHg 88%
    07:00 -8°C° 0 mm 1 mps 597 mmHg 86%
    08:00 -7°C° 0 mm 1 mps 598 mmHg 82%
    09:00 -7°C° 0 mm 2 mps 598 mmHg 78%
    10:00 -6°C° 0 mm 2 mps 599 mmHg 74%
    11:00 -5°C° 0.1 mm 2 mps 599 mmHg 75%
    12:00 -5°C° 0.1 mm 2 mps 599 mmHg 76%
    13:00 -5°C° 0.1 mm 3 mps 599 mmHg 77%
    14:00 -5°C° 0.1 mm 3 mps 599 mmHg 78%
    15:00 -5°C° 0.1 mm 3 mps 599 mmHg 79%
    16:00 -5°C° 0.1 mm 2 mps 598 mmHg 79%
    17:00 -6°C° 0 mm 2 mps 598 mmHg 84%
    18:00 -7°C° 0 mm 2 mps 598 mmHg 89%
    19:00 -7°C° 0 mm 1 mps 598 mmHg 94%
    20:00 -8°C° 0 mm 1 mps 598 mmHg 94%
    21:00 -8°C° 0 mm 1 mps 598 mmHg 93%
    22:00 -8°C° 0 mm 1 mps 599 mmHg 93%
    23:00 -9°C° 0 mm 1 mps 599 mmHg 92%

    28 March, Thursday

    Time Temperature Precipitation Wind Pressure Humidity
    00:00 -9°C° 0 mm 1 mps 599 mmHg 91%
    01:00 -10°C° 0 mm 1 mps 598 mmHg 90%
    02:00 -10°C° 0 mm 1 mps 598 mmHg 88%
    03:00 -10°C° 0 mm 1 mps 598 mmHg 86%
    04:00 -10°C° 0 mm 1 mps 598 mmHg 84%
    05:00 -9°C° 0 mm 1 mps 598 mmHg 81%
    06:00 -9°C° 0 mm 1 mps 599 mmHg 79%
    07:00 -8°C° 0 mm 1 mps 599 mmHg 76%
    08:00 -6°C° 0 mm 1 mps 600 mmHg 72%
    09:00 -2°C° 0 mm 1 mps 601 mmHg 67%
    10:00 0°C° 0 mm 1 mps 602 mmHg 62%
    11:00 -1°C° 0 mm 2 mps 602 mmHg 64%
    12:00 -1°C° 0 mm 2 mps 602 mmHg 66%
    13:00 +1°C° 0 mm 2 mps 602 mmHg 68%
    14:00 +1°C° 0 mm 2 mps 602 mmHg 70%
    15:00 +1°C° 0 mm 2 mps 601 mmHg 73%
    16:00 +1°C° 0 mm 2 mps 601 mmHg 76%
    17:00 -2°C° 0 mm 2 mps 601 mmHg 82%
    18:00 -1°C° 0 mm 1 mps 600 mmHg 88%
    19:00 -3°C° 0 mm 1 mps 600 mmHg 95%
    20:00 -4°C° 0 mm 1 mps 600 mmHg 94%
    21:00 -4°C° 0 mm 1 mps 600 mmHg 94%
    22:00 -6°C° 0 mm 1 mps 600 mmHg 94%
    23:00 -6°C° 0 mm 1 mps 600 mmHg 91%

    29 March, Friday

    Time Temperature Precipitation Wind Pressure Humidity
    00:00 -6°C° 0 mm 1 mps 600 mmHg 89%
    01:00 -7°C° 0 mm 2 mps 600 mmHg 86%
    02:00 -7°C° 0 mm 2 mps 600 mmHg 85%
    03:00 -7°C° 0 mm 2 mps 600 mmHg 84%
    04:00 -8°C° 0 mm 2 mps 600 mmHg 83%
    05:00 -7°C° 0 mm 2 mps 600 mmHg 82%
    06:00 -7°C° 0 mm 2 mps 600 mmHg 81%
    07:00 -6°C° 0 mm 2 mps 601 mmHg 80%
    08:00 -4°C° 0 mm 2 mps 602 mmHg 74%
    09:00 +1°C° 0 mm 1 mps 603 mmHg 67%
    10:00 +4°C° 0 mm 1 mps 604 mmHg 60%
    11:00 +4°C° 0 mm 1 mps 604 mmHg 59%
    12:00 +5°C° 0 mm 1 mps 604 mmHg 58%
    13:00 +6°C° 0 mm 1 mps 604 mmHg 58%
    14:00 +6°C° 0 mm 1 mps 603 mmHg 58%
    15:00 +6°C° 0 mm 1 mps 603 mmHg 58%
    16:00 +5°C° 0 mm 1 mps 602 mmHg 59%
    17:00 +3°C° 0 mm 1 mps 601 mmHg 65%
    18:00 -1°C° 0 mm 0 mps 600 mmHg 72%
    19:00 -3°C° 0 mm 0 mps 600 mmHg 79%
    20:00 -2°C° 0 mm 1 mps 600 mmHg 75%
    21:00 -3°C° 0 mm 1 mps 600 mmHg 71%
    22:00 -5°C° 0 mm 2 mps 600 mmHg 67%
    23:00 -5°C° 0 mm 2 mps 600 mmHg 64%

    30 March, Saturday

    Time Temperature Precipitation Wind Pressure Humidity
    00:00 -5°C° 0 mm 2 mps 600 mmHg 60%
    01:00 -5°C° 0 mm 2 mps 600 mmHg 57%
    02:00 -6°C° 0 mm 2 mps 600 mmHg 55%
    03:00 -6°C° 0 mm 2 mps 599 mmHg 54%
    04:00 -6°C° 0 mm 2 mps 599 mmHg 52%
    05:00 -3°C° 0 mm 1 mps 599 mmHg 52%
    06:00 -3°C° 0 mm 1 mps 600 mmHg 53%
    07:00 -2°C° 0 mm 1 mps 600 mmHg 53%
    08:00 0°C° 0 mm 1 mps 601 mmHg 52%
    09:00 +2°C° 0 mm 0 mps 602 mmHg 52%
    10:00 +4°C° 0 mm 0 mps 602 mmHg 51%
    11:00 +5°C° 0 mm 0 mps 602 mmHg 50%
    12:00 +6°C° 0 mm 0 mps 602 mmHg 49%
    13:00 +7°C° 0 mm 1 mps 602 mmHg 48%
    14:00 +7°C° 0 mm 1 mps 602 mmHg 50%
    15:00 +7°C° 0 mm 1 mps 601 mmHg 53%
    16:00 +6°C° 0 mm 1 mps 601 mmHg 56%
    17:00 +4°C° 0 mm 1 mps 600 mmHg 66%
    18:00 +2°C° 0 mm 1 mps 599 mmHg 77%
    19:00 -2°C° 0 mm 0 mps 598 mmHg 87%
    20:00 -2°C° 0 mm 0 mps 598 mmHg 89%
    21:00 -1°C° 0 mm 1 mps 598 mmHg 90%
    22:00 -2°C° 0 mm 1 mps 598 mmHg 92%
    23:00 -2°C° 0 mm 1 mps 598 mmHg 92%
    Show more